Location: Coleto Creek Park and Reservoir
(28.7196°N, 97.1740°W)
Time: 12:09:22
(UTC-06:00)

Hubble Space Telescope - Visible Passes

Search period start: 01 February 2015 00:00
Search period end: 11 February 2015 00:00
Orbit: 544 x 548 km, 28.5° (Epoch: 31 January)

Date Brightness Start Highest point End Pass type
(mag) Time Alt. Az. Time Alt. Az. Time Alt. Az.
01 Feb 1.6 20:04:31 10° W 20:07:42 51° W 20:07:42 51° W visible
02 Feb 1.0 19:56:32 10° W 20:00:17 66° WSW 20:00:17 66° WSW visible
03 Feb 0.9 19:48:33 10° W 19:52:42 65° SSW 19:52:53 64° S visible
04 Feb 1.2 19:40:35 10° W 19:44:41 55° SSW 19:45:34 45° SSE visible
05 Feb 1.6 19:32:38 10° W 19:36:39 45° SSW 19:38:17 29° SE visible
06 Feb 2.0 19:24:42 10° W 19:28:35 36° SSW 19:31:06 18° SE visible
07 Feb 2.4 19:16:49 10° W 19:20:29 29° SSW 19:24:01 10° SE visible
08 Feb 2.9 19:09:02 10° WSW 19:12:23 23° SSW 19:15:42 10° SSE visible
09 Feb 3.3 19:01:23 10° WSW 19:04:16 18° SSW 19:07:04 10° SSE visible
10 Feb 3.6 18:54:01 10° WSW 18:56:08 13° SSW 18:58:08 10° S visible
